www.pogodaiklimat.ru
ПОГОДА в Окснарде
Время
и дата
15:51 06.12
16:51 06.12
17:51 06.12
18:51 06.12
19:18 06.12
19:51 06.12
20:37 06.12
20:51 06.12
21:13 06.12
21:51 06.12
22:51 06.12
23:51 06.12
00:51 07.12
01:51 07.12
02:49 07.12
02:51 07.12
03:00 07.12
03:51 07.12
04:51 07.12
05:51 07.12
06:51 07.12
07:51 07.12
08:51 07.12
09:51 07.12
10:51 07.12
11:51 07.12
12:51 07.12
13:51 07.12
14:51 07.12
15:51 07.12
16:51 07.12
17:51 07.12
18:51 07.12
19:51 07.12
20:51 07.12
21:51 07.12
22:51 07.12
23:51 07.12
00:51 08.12
01:51 08.12
02:51 08.12
03:51 08.12
04:51 08.12
05:51 08.12
06:51 08.12
07:51 08.12
08:51 08.12
09:51 08.12
Ветер
(напр.,м/с)
Видим. Явления Облачность Т
(С)
Тd
(С)
f
(%)
Тe
(С)
Тes
(С)
Комфортность P
(гПа)
Po
(гПа)
Тmin
(С)
Tmax
(С)
R
(мм)
R24
(мм)
S
(см)
З 5 16 км ясно +14.4 +8.9 70 +13 +14 1016.6 1014.9 +13.3 +16.1
З 4 16 км ясно +12.8 +9.4 80 +11 +11 1016.9 1015.2
З 4 16 км ясно +12.2 +10.0 86 +10 +10 1017.3 1015.6
З 4 16 км 5/5 630 м +12.2 +10.6 90 +10 +10 1017.6 1015.9
З 3 16 км 8/8 690 м +12.2 +10.6 90 +11 +11 1015.9
З 3 16 км 5/5 690 м +12.2 +10.0 86 +11 +11 1017.7 1015.9
штиль 0 16 км 8/8 750 м +12.2 +10.6 90 +12 +12 1016.3
штиль 0 16 км 10/10 750 м +12.2 +10.6 90 +12 +12 1018.0 1016.3
С 2 16 км 5/5 750 м +11.1 +9.4 89 +10 +10 1016.6
В 2 16 км ясно +9.4 +8.9 97 +8 +8 1018.2 1016.6 +9.4 +14.4
СВ 2 16 км ясно +8.9 +7.8 93 +7 +7 1018.8 1017.3
СВ 3 16 км ясно +8.9 +7.8 93 +6 +6 1019.0 1017.3
СВ 3 16 км ясно +8.3 +7.2 93 +6 +6 1019.0 1017.3
СВ 3 16 км 2/2 930 м +8.3 +6.7 90 +6 +6 1019.4 1018.0
СВ 3 16 км 8/8 810 м +8.0 +7.0 93 +5 +5 1017.6
СВ 3 16 км 8/8 810 м +7.8 +6.1 89 +5 +5 1019.3 1017.6
СВ 3 16 км 5/5 810 м +7.8 +6.1 89 +5 +5 1017.6
СВ 3 16 км 2/2 810 м +7.8 +6.1 89 +5 +5 1019.6 1018.0 +7.2 +9.4
СВ 3 16 км ясно +7.8 +6.1 89 +5 +5 1019.8 1018.3
СВ 4 16 км ясно +7.2 +5.6 90 +4 +4 1020.6 1019.0
СВ 4 16 км ясно +7.8 +5.6 86 +4 +4 1021.2 1019.6
СВ 3 16 км ясно +8.3 +6.1 86 +6 +6 1021.9 1020.3
СВ 4 16 км ясно +10.6 +6.7 77 +8 +9 1022.7 1021.0
СВ 3 16 км ясно +12.8 +8.3 74 +11 +13 1023.3 1021.7 +7.2 +12.8
штиль 0 16 км 5/5 780 м +14.4 +8.3 67 +14 +17 1023.5 1021.7
ЮЗ 4 16 км 5/5 750 м +14.4 +8.3 67 +13 +15 1022.9 1021.3
ЮЗ 4 16 км ясно +14.4 +7.2 62 +13 +18 1022.4 1020.7
ЮЗ 4 16 км 5/5 750 м +14.4 +7.8 65 +13 +15 1022.2 1020.7
ЮЗ 4 16 км ясно +14.4 +7.2 62 +13 +16 1022.5 1020.7
З 5 16 км ясно +14.4 +7.2 62 +13 +14 1023.4 1021.7 +13.3 +15.0
З 3 16 км 5/5 750 м +12.2 +8.3 77 +11 +11 1023.8 1022.0
штиль 0 16 км ясно +11.7 +7.8 77 +11 +11 1023.6 1022.0
штиль 0 16 км ясно +11.7 +7.8 77 +11 +11 1024.1 1022.3
СВ 2 16 км ясно +9.4 +7.8 90 +8 +8 1024.4 1022.7
СВ 3 16 км ясно +8.9 +7.2 89 +6 +6 1024.5 1023.0
СВ 2 16 км ясно +7.8 +6.7 93 +6 +6 1025.1 1023.4 +7.8 +14.4
СВ 3 16 км ясно +7.8 +6.1 89 +5 +5 1025.4 1023.7
СВ 2 16 км ясно +7.8 +6.1 89 +6 +6 1025.7 1024.0
СВ 3 16 км ясно +7.8 +6.1 89 +5 +5 1025.7 1024.0
СВ 3 16 км ясно +7.8 +5.6 86 +5 +5 1026.0 1024.4
СВ 4 16 км ясно +7.2 +5.6 90 +4 +4 1025.8 1024.0
СВ 4 16 км ясно +6.7 +5.0 89 +3 +3 1025.3 1023.7 +6.7 +8.3
СВ 5 16 км ясно +6.7 +5.0 89 +2 +2 1025.2 1023.7
СВ 5 16 км ясно +7.2 +4.4 82 +3 +3 1025.4 1023.7
СВ 4 16 км ясно +6.7 +4.4 85 +3 +3 1025.8 1024.0
СВ 5 16 км ясно +7.8 +4.4 79 +4 +4 1026.3 1024.7
СВ 4 16 км ясно +10.0 +5.6 74 +7 +8 1026.7 1025.1
СВ 4 16 км ясно +12.8 +4.4 57 +11 +13 1027.0 1025.4 +6.7 +12.8
Местоположение метеостанции Oxnard Airport: широта 34.2006 долгота -119.2031 высота над уровнем моря 13 м.
В архиве по умолчанию представлена погода в Окснарде за последние 1-2 суток. Обновление информации о фактической погоде в базе происходит ежечасно! Архивные данные за месяц целиком и за предыдущие месяцы Вы можете получить, выбрав интересующий диапазон дат из раскрывающегося списка и нажав кнопку "Ввод!".
Внимание! Архив погоды МЕТАР в базе сайта по станциям, не включенным в климатический монитор, хранится не более 60 дней. Нет смысла пытаться выбрать более раннюю дату.
*Определитесь, кто Вы:
Внимание! Время в таблицах - местное (без учета летнего времени). Для получения всемирного времени необходимо вычесть поправку, которая равна -8 ч.
Смотрите также архив погоды в соседних городах и на ближайших метеорологических станциях:
Партнеры нашего сайта:      
Пояснения к столбцам:
  • Ветер - указаны скорость ветра в м/с - средняя за 10 мин, порывы в срок и между сроками (в фигурных скобках) и направление, откуда дует ветер: С - северный,
  • СВ - северо-восточный, В - восточный, ЮВ - юго-восточный, Ю - южный, ЮЗ - юго-западный, З - западный, СЗ - северо-западный.
  • Видимость - горизонтальная дальность видимости в метрах или километрах. При видимости от 1 до 10 км при отсутствии осадков обычно наблюдается дымка, при ухудшении видимости до 1 км и менее - туман. В сухую погоду видимость может ухудшаться дымом, пылью или мглою.
  • Явления - указаны атмосферные явления, наблюдавшиеся в срок или в последний час перед сроком; фигурными скобками обозначены явления, наблюдавшиеся между сроками (за 1-3 часа до срока); квадратными скобками обозначены град или гололедные отложения с указанием их диаметра в мм.
  • Облачность - указаны через наклонную черту общая и нижняя облачность в баллах и высота нижней границы облаков в метрах; квадратными скобками обозначены формы облаков: Ci - перистые, Cs - перисто-слоистые, Cc - перисто-кучевые, Ac - высококучевые, As - высокослоистые, Sc - слоисто-кучевые, Ns - слоисто-дождевые, Cu - кучевые, Cb - кучево-дождевые. Подробнее классификацию облаков см. в Атласе облаков (PDF).
  • T - Температура воздуха - температура, измеренная на высоте 2 м над землей.
  • Td - Температура точки росы - температура, при понижении до которой содержащийся в воздухе водяной пар достигнет насыщения.
  • f - Относительная влажность воздуха - влажноcть воздуха, измеренная на высоте 2 м над землей.
  • Te - Эффективная температура - температура, которую ощущает одетый по сезону человек в тени. Характеристика душности погоды. При расчете учитывается влияние влажности воздуха и скорости ветра на теплоощущения человека.
  • Tes - Эффективная температура на солнце - температура, которую ощущает человек, с поправкой на солнечный нагрев. Характеристика знойности погоды. Зависит от высоты солнца над горизонтом, облачности и скорости ветра. Ночью, в пасмурную погоду, а также при ветре 12 м/с и более поправка равна нулю.
  • P - Атмосферное давление - приведенное к уровню моря атмосферное давление.
  • Po - Атмосферное давление - измеренное на уровне метеостанции атмосферное давление.
  • Tmin - Минимальная температура - минимум температуры воздуха на высоте 2 м над землей.
  • Tmax - Максимальная температура - максимум температуры воздуха на высоте 2 м над землей.
  • R - Количество осадков - Количество выпавших осадков за период времени, мм. При наведении курсора мыши на число - период времени, за который выпало указанное количество осадков.
  • R24 - Количество осадков - Количество выпавших осадков за 24 часа, мм.
  • S - Снежный покров - Высота снежного покрова, см. При наведении курсора мыши на число - состояние снежного покрова и степень покрытия местности в баллах.